| time (UTC) | temp F | wind direction | speed knots | gust knots | rain 1hr in | rain 24hr in | rain mn in | humidity % | barometer mb |
| 20260507235502 | 71 | 273 | 4.3 | 10.4 | 0.00 | 0.00 | 0.00 | 55 | 979.6 |
| 20260507234956 | 71 | 267 | 4.3 | 10.4 | 0.00 | 0.00 | 0.00 | 57 | 979.7 |
| 20260507233944 | 71 | 266 | 3.5 | 7.8 | 0.00 | 0.00 | 0.00 | 57 | 979.7 |
| 20260507233438 | 71 | 254 | 3.5 | 8.7 | 0.00 | 0.00 | 0.00 | 58 | 979.8 |
| 20260507232932 | 70 | 355 | 4.3 | 8.7 | 0.00 | 0.00 | 0.00 | 58 | 979.7 |
| 20260507232426 | 70 | 215 | 3.5 | 8.7 | 0.00 | 0.00 | 0.00 | 62 | 979.7 |
| 20260507231920 | 70 | 294 | 5.2 | 12.2 | 0.00 | 0.00 | 0.00 | 60 | 979.8 |
| 20260507231414 | 70 | 290 | 6.1 | 12.2 | 0.00 | 0.00 | 0.00 | 61 | 979.8 |
| 20260507230908 | 70 | 228 | 6.1 | 13.0 | 0.00 | 0.00 | 0.00 | 61 | 979.7 |
| 20260507230403 | 70 | 246 | 4.3 | 13.0 | 0.00 | 0.00 | 0.00 | 62 | 979.8 |
| 20260507225903 | 70 | 248 | 4.3 | 9.6 | 0.00 | 0.00 | 0.00 | 62 | 979.9 |
| 20260507225403 | 70 | 297 | 5.2 | 9.6 | 0.00 | 0.00 | 0.00 | 62 | 979.9 |
| 20260507224403 | 70 | 263 | 4.3 | 9.6 | 0.00 | 0.00 | 0.00 | 65 | 980.0 |
| 20260507223903 | 70 | 220 | 5.2 | 10.4 | 0.00 | 0.00 | 0.00 | 64 | 980.0 |
| 20260507223404 | 69 | 222 | 6.1 | 11.3 | 0.00 | 0.00 | 0.00 | 64 | 980.0 |
| 20260507222403 | 69 | 245 | 6.1 | 13.0 | 0.00 | 0.00 | 0.00 | 63 | 980.0 |
| 20260507221901 | 69 | 269 | 6.1 | 12.2 | 0.00 | 0.00 | 0.00 | 64 | 980.1 |
| 20260507221359 | 69 | 254 | 6.1 | 10.4 | 0.00 | 0.00 | 0.00 | 63 | 980.1 |
| 20260507220900 | 69 | 232 | 6.1 | 13.0 | 0.00 | 0.00 | 0.00 | 65 | 980.1 |
| 20260507215359 | 68 | 217 | 5.2 | 11.3 | 0.00 | 0.00 | 0.00 | 68 | 980.3 |
| 20260507214859 | 68 | 211 | 5.2 | 11.3 | 0.00 | 0.00 | 0.00 | 62 | 980.4 |
| 20260507214359 | 68 | 246 | 5.2 | 10.4 | 0.00 | 0.00 | 0.00 | 63 | 980.5 |
| 20260507213900 | 68 | 232 | 5.2 | 10.4 | 0.00 | 0.00 | 0.00 | 65 | 980.6 |
| 20260507213354 | 68 | 250 | 5.2 | 11.3 | 0.00 | 0.00 | 0.00 | 65 | 980.7 |
| 20260507212854 | 68 | 265 | 6.1 | 11.3 | 0.00 | 0.00 | 0.00 | 65 | 980.6 |
| 20260507212354 | 68 | 192 | 6.1 | 10.4 | 0.00 | 0.00 | 0.00 | 68 | 980.7 |
| 20260507211854 | 68 | 202 | 6.1 | 10.4 | 0.00 | 0.00 | 0.00 | 65 | 980.7 |
| 20260507211350 | 67 | 236 | 6.1 | 12.2 | 0.00 | 0.00 | 0.00 | 69 | 980.7 |
| 20260507210851 | 67 | 155 | 5.2 | 12.2 | 0.00 | 0.00 | 0.00 | 66 | 980.8 |
| 20260507210352 | 67 | 256 | 5.2 | 11.3 | 0.00 | 0.00 | 0.00 | 67 | 980.9 |
| 20260507205849 | 67 | 202 | 5.2 | 11.3 | 0.00 | 0.00 | 0.00 | 71 | 981.0 |
| 20260507205349 | 67 | 273 | 5.2 | 11.3 | 0.00 | 0.00 | 0.00 | 68 | 981.0 |
| 20260507204848 | 67 | 252 | 5.2 | 11.3 | 0.00 | 0.00 | 0.00 | 68 | 981.1 |
| 20260507204348 | 66 | 271 | 5.2 | 11.3 | 0.00 | 0.00 | 0.00 | 69 | 981.1 |
| 20260507203849 | 66 | 160 | 5.2 | 12.2 | 0.00 | 0.00 | 0.00 | 69 | 981.2 |
| 20260507203349 | 66 | 165 | 6.1 | 12.2 | 0.00 | 0.00 | 0.00 | 69 | 981.2 |
| 20260507202849 | 66 | 292 | 5.2 | 11.3 | 0.00 | 0.00 | 0.00 | 67 | 981.3 |
| 20260507202349 | 66 | 256 | 5.2 | 9.6 | 0.00 | 0.00 | 0.00 | 70 | 981.3 |
| 20260507201350 | 65 | 296 | 5.2 | 9.6 | 0.00 | 0.00 | 0.00 | 71 | 981.3 |
| 20260507200844 | 65 | 263 | 4.3 | 8.7 | 0.00 | 0.00 | 0.00 | 70 | 981.4 |
| 20260507200344 | 65 | 244 | 3.5 | 8.7 | 0.00 | 0.00 | 0.00 | 70 | 981.5 |
| 20260507195846 | 65 | 219 | 3.5 | 9.6 | 0.00 | 0.00 | 0.00 | 74 | 981.5 |
| 20260507194846 | 65 | 211 | 5.2 | 11.3 | 0.00 | 0.00 | 0.00 | 72 | 981.7 |
| 20260507194344 | 64 | 267 | 4.3 | 10.4 | 0.00 | 0.00 | 0.00 | 71 | 981.7 |
| 20260507193845 | 64 | 250 | 4.3 | 10.4 | 0.00 | 0.00 | 0.00 | 74 | 981.7 |
| 20260507193344 | 64 | 246 | 3.5 | 8.7 | 0.00 | 0.00 | 0.00 | 74 | 981.7 |
| 20260507192846 | 64 | 227 | 4.3 | 8.7 | 0.00 | 0.00 | 0.00 | 75 | 981.8 |
| 20260507191841 | 64 | 277 | 4.3 | 10.4 | 0.00 | 0.00 | 0.00 | 75 | 981.9 |
| 20260507191340 | 63 | 248 | 5.2 | 10.4 | 0.00 | 0.00 | 0.00 | 73 | 981.9 |
| 20260507190840 | 63 | 159 | 4.3 | 8.7 | 0.00 | 0.00 | 0.00 | 77 | 981.9 |
| 20260507190341 | 63 | 162 | 4.3 | 8.7 | 0.00 | 0.00 | 0.00 | 75 | 981.9 |
| 20260507185841 | 62 | 196 | 4.3 | 8.7 | 0.00 | 0.00 | 0.00 | 75 | 982.0 |
| 20260507184342 | 61 | 231 | 4.3 | 9.6 | 0.00 | 0.00 | 0.00 | 77 | 982.2 |
| 20260507183834 | 61 | 261 | 4.3 | 11.3 | 0.00 | 0.00 | 0.00 | 78 | 982.2 |
| 20260507183327 | 62 | 295 | 5.2 | 11.3 | 0.00 | 0.00 | 0.00 | 76 | 982.2 |
| 20260507182820 | 61 | 263 | 4.3 | 8.7 | 0.00 | 0.00 | 0.00 | 79 | 982.3 |
| 20260507182315 | 61 | 211 | 4.3 | 8.7 | 0.00 | 0.00 | 0.00 | 78 | 982.2 |
| 20260507181808 | 61 | 218 | 4.3 | 9.6 | 0.00 | 0.00 | 0.00 | 77 | 982.3 |
| 20260507181303 | 61 | 271 | 5.2 | 9.6 | 0.00 | 0.00 | 0.00 | 77 | 982.3 |
| 20260507180757 | 61 | 232 | 4.3 | 7.8 | 0.00 | 0.00 | 0.00 | 77 | 982.3 |
| 20260507180254 | 61 | 211 | 4.3 | 8.7 | 0.00 | 0.00 | 0.00 | 79 | 982.3 |
| 20260507175755 | 60 | 260 | 4.3 | 8.7 | 0.00 | 0.00 | 0.00 | 78 | 982.4 |
| 20260507175256 | 60 | 244 | 3.5 | 7.8 | 0.00 | 0.00 | 0.00 | 78 | 982.3 |
| 20260507174753 | 60 | 234 | 3.5 | 7.8 | 0.00 | 0.00 | 0.00 | 80 | 982.4 |
| 20260507174252 | 60 | 240 | 3.5 | 7.8 | 0.00 | 0.00 | 0.00 | 82 | 982.4 |
| 20260507173753 | 59 | 189 | 2.6 | 7.8 | 0.00 | 0.00 | 0.00 | 81 | 982.5 |
| 20260507173252 | 59 | 288 | 1.7 | 6.1 | 0.00 | 0.00 | 0.00 | 82 | 982.5 |
| 20260507172752 | 59 | 180 | 1.7 | 5.2 | 0.00 | 0.00 | 0.00 | 82 | 982.5 |
| 20260507171748 | 58 | 169 | 2.6 | 6.1 | 0.00 | 0.00 | 0.00 | 84 | 982.5 |
| 20260507171249 | 58 | 286 | 2.6 | 6.1 | 0.00 | 0.00 | 0.00 | 84 | 982.5 |
| 20260507170750 | 57 | 240 | 1.7 | 6.1 | 0.00 | 0.00 | 0.00 | 85 | 982.5 |
| 20260507165747 | 56 | 228 | 1.7 | 5.2 | 0.00 | 0.00 | 0.00 | 87 | 982.6 |
| 20260507165246 | 56 | 277 | 1.7 | 5.2 | 0.00 | 0.00 | 0.00 | 86 | 982.6 |
| 20260507164747 | 56 | 344 | 0.9 | 4.3 | 0.00 | 0.00 | 0.00 | 87 | 982.6 |
| 20260507164247 | 55 | 173 | 0.9 | 3.5 | 0.00 | 0.00 | 0.00 | 88 | 982.6 |
| 20260507163236 | 55 | 142 | 1.7 | 4.3 | 0.00 | 0.00 | 0.00 | 89 | 982.6 |
| 20260507161716 | 54 | 217 | 1.7 | 2.6 | 0.00 | 0.00 | 0.00 | 89 | 982.7 |
| 20260507161211 | 54 | 183 | 1.7 | 2.6 | 0.00 | 0.00 | 0.00 | 89 | 982.7 |
| 20260507160705 | 54 | 261 | 0.9 | 2.6 | 0.00 | 0.00 | 0.00 | 89 | 982.7 |
| 20260507160159 | 54 | 217 | 0.9 | 3.5 | 0.00 | 0.00 | 0.00 | 91 | 982.8 |
| 20260507155653 | 54 | 265 | 1.7 | 3.5 | 0.00 | 0.00 | 0.00 | 90 | 982.7 |
| 20260507154641 | 53 | 210 | 1.7 | 4.3 | 0.00 | 0.00 | 0.00 | 91 | 982.7 |
| 20260507153629 | 53 | 180 | 0.9 | 3.5 | 0.00 | 0.00 | 0.00 | 92 | 982.9 |
| 20260507153122 | 53 | 179 | 0.0 | 0.0 | 0.00 | 0.00 | 0.00 | 92 | 982.9 |
| 20260507152617 | 53 | 178 | 0.0 | 0.0 | 0.00 | 0.00 | 0.00 | 92 | 982.9 |
| 20260507152111 | 52 | 235 | 0.0 | 0.0 | 0.00 | 0.00 | 0.00 | 93 | 982.9 |
| 20260507151605 | 52 | 273 | 0.0 | 0.0 | 0.00 | 0.00 | 0.00 | 93 | 982.9 |
| 20260507150554 | 51 | 203 | 0.0 | 0.0 | 0.00 | 0.00 | 0.00 | 94 | 982.9 |
| 20260507150047 | 51 | 203 | 0.0 | 0.0 | 0.00 | 0.00 | 0.00 | 94 | 983.0 |
| 20260507145035 | 51 | 203 | 0.0 | 0.0 | 0.00 | 0.00 | 0.00 | 95 | 982.9 |
| 20260507144529 | 51 | 203 | 0.0 | 0.0 | 0.00 | 0.00 | 0.00 | 94 | 982.9 |
| 20260507143516 | 51 | 203 | 0.0 | 0.0 | 0.00 | 0.00 | 0.00 | 95 | 982.9 |
| 20260507143011 | 50 | 203 | 0.0 | 0.0 | 0.00 | 0.00 | 0.00 | 95 | 982.9 |
| 20260507142505 | 50 | 196 | 0.0 | 0.0 | 0.00 | 0.00 | 0.00 | 95 | 982.9 |
| 20260507141959 | 50 | 231 | 0.0 | 0.0 | 0.00 | 0.00 | 0.00 | 95 | 982.9 |
| 20260507141453 | 50 | 231 | 0.0 | 0.0 | 0.00 | 0.00 | 0.00 | 95 | 982.8 |
| 20260507140947 | 50 | 163 | 0.0 | 0.0 | 0.00 | 0.00 | 0.00 | 95 | 982.8 |
| 20260507140441 | 50 | 277 | 0.0 | 0.0 | 0.00 | 0.00 | 0.00 | 95 | 982.8 |
| 20260507135935 | 50 | 277 | 0.0 | 0.0 | 0.00 | 0.00 | 0.00 | 95 | 982.7 |
| 20260507135429 | 50 | 277 | 0.0 | 0.0 | 0.00 | 0.00 | 0.00 | 95 | 982.7 |
| 20260507134923 | 50 | 243 | 0.0 | 0.0 | 0.00 | 0.00 | 0.00 | 95 | 982.6 |
| 20260507134417 | 50 | 244 | 0.0 | 1.7 | 0.00 | 0.00 | 0.00 | 94 | 982.6 |
| 20260507133406 | 50 | 261 | 0.0 | 2.6 | 0.00 | 0.00 | 0.00 | 94 | 982.6 |
| 20260507132859 | 50 | 233 | 0.0 | 1.7 | 0.00 | 0.00 | 0.00 | 94 | 982.6 |
| 20260507132353 | 50 | 233 | 0.0 | 2.6 | 0.00 | 0.00 | 0.00 | 94 | 982.6 |
| 20260507131847 | 50 | 234 | 0.0 | 2.6 | 0.00 | 0.00 | 0.00 | 94 | 982.7 |
| 20260507131344 | 50 | 184 | 0.0 | 2.6 | 0.00 | 0.00 | 0.00 | 94 | 982.7 |
| 20260507130844 | 50 | 245 | 0.0 | 2.6 | 0.00 | 0.00 | 0.00 | 94 | 982.7 |
| 20260507130342 | 50 | 217 | 0.0 | 2.6 | 0.00 | 0.00 | 0.00 | 94 | 982.7 |
| 20260507125843 | 50 | 239 | 0.0 | 0.0 | 0.00 | 0.00 | 0.00 | 94 | 982.7 |
| 20260507125341 | 50 | 204 | 0.0 | 0.0 | 0.00 | 0.00 | 0.00 | 94 | 982.7 |
| 20260507124340 | 50 | 238 | 0.0 | 1.7 | 0.00 | 0.00 | 0.00 | 95 | 982.7 |
| 20260507123840 | 50 | 232 | 0.9 | 2.6 | 0.00 | 0.00 | 0.00 | 94 | 982.8 |
| 20260507123341 | 50 | 236 | 0.9 | 2.6 | 0.00 | 0.00 | 0.00 | 94 | 982.7 |
| 20260507122839 | 50 | 256 | 0.9 | 2.6 | 0.00 | 0.00 | 0.00 | 94 | 982.7 |
| 20260507122340 | 50 | 261 | 0.9 | 2.6 | 0.00 | 0.00 | 0.00 | 94 | 982.8 |
| 20260507121841 | 50 | 270 | 0.9 | 2.6 | 0.00 | 0.00 | 0.00 | 94 | 982.8 |
| 20260507121340 | 50 | 236 | 0.9 | 3.5 | 0.00 | 0.00 | 0.00 | 94 | 982.8 |
| 20260507120841 | 50 | 279 | 0.9 | 3.5 | 0.00 | 0.00 | 0.00 | 94 | 982.8 |
| 20260507120339 | 50 | 275 | 0.9 | 2.6 | 0.00 | 0.00 | 0.00 | 94 | 982.9 |
| 20260507115838 | 50 | 298 | 0.9 | 3.5 | 0.00 | 0.00 | 0.00 | 94 | 982.9 |
| 20260507115339 | 50 | 267 | 0.9 | 3.5 | 0.00 | 0.00 | 0.00 | 94 | 982.9 |
| 20260507114835 | 50 | 271 | 0.0 | 2.6 | 0.00 | 0.00 | 0.00 | 94 | 983.0 |
| 20260507113834 | 50 | 209 | 0.9 | 3.5 | 0.00 | 0.00 | 0.00 | 94 | 983.0 |
| 20260507113334 | 50 | 221 | 1.7 | 3.5 | 0.00 | 0.00 | 0.00 | 94 | 983.1 |
| 20260507112833 | 50 | 230 | 1.7 | 3.5 | 0.00 | 0.00 | 0.00 | 94 | 983.1 |
| 20260507112334 | 50 | 246 | 0.9 | 3.5 | 0.00 | 0.00 | 0.00 | 94 | 983.1 |
| 20260507111836 | 50 | 227 | 0.9 | 2.6 | 0.00 | 0.00 | 0.00 | 93 | 983.2 |
| 20260507110834 | 50 | 285 | 1.7 | 3.5 | 0.00 | 0.00 | 0.00 | 93 | 983.1 |
| 20260507105829 | 51 | 219 | 0.9 | 2.6 | 0.00 | 0.00 | 0.00 | 93 | 983.1 |
| 20260507105330 | 51 | 249 | 0.0 | 2.6 | 0.00 | 0.00 | 0.00 | 93 | 983.1 |
| 20260507104829 | 51 | 258 | 0.0 | 2.6 | 0.00 | 0.00 | 0.00 | 93 | 983.2 |
| 20260507104331 | 51 | 227 | 0.0 | 0.0 | 0.00 | 0.00 | 0.00 | 92 | 983.2 |
| 20260507103831 | 51 | 235 | 0.0 | 0.0 | 0.00 | 0.00 | 0.00 | 92 | 983.1 |
| 20260507103331 | 51 | 262 | 0.0 | 0.0 | 0.00 | 0.00 | 0.00 | 92 | 983.1 |
| 20260507102830 | 51 | 232 | 0.0 | 0.9 | 0.00 | 0.00 | 0.00 | 92 | 983.1 |
| 20260507102331 | 51 | 242 | 0.9 | 2.6 | 0.00 | 0.00 | 0.00 | 92 | 983.2 |
| 20260507101829 | 51 | 245 | 0.9 | 2.6 | 0.00 | 0.00 | 0.00 | 91 | 983.2 |
| 20260507100324 | 51 | 236 | 0.9 | 2.6 | 0.00 | 0.00 | 0.00 | 91 | 983.4 |
| 20260507095825 | 51 | 229 | 0.9 | 2.6 | 0.00 | 0.00 | 0.00 | 90 | 983.4 |
| 20260507095324 | 51 | 235 | 0.9 | 1.7 | 0.00 | 0.00 | 0.00 | 90 | 983.5 |
| 20260507094823 | 51 | 263 | 0.9 | 2.6 | 0.00 | 0.00 | 0.00 | 90 | 983.6 |
| 20260507094324 | 51 | 265 | 1.7 | 3.5 | 0.00 | 0.00 | 0.00 | 90 | 983.6 |
| 20260507093825 | 51 | 244 | 0.9 | 3.5 | 0.00 | 0.00 | 0.00 | 90 | 983.7 |
| 20260507093325 | 51 | 236 | 0.0 | 2.6 | 0.00 | 0.00 | 0.00 | 89 | 983.7 |
| 20260507092322 | 51 | 177 | 0.0 | 2.6 | 0.00 | 0.00 | 0.00 | 89 | 983.8 |
| 20260507091822 | 51 | 194 | 0.9 | 3.5 | 0.00 | 0.00 | 0.00 | 89 | 983.8 |
| 20260507091321 | 51 | 192 | 0.9 | 3.5 | 0.00 | 0.00 | 0.00 | 89 | 983.8 |
| 20260507090321 | 52 | 271 | 0.9 | 3.5 | 0.00 | 0.00 | 0.00 | 88 | 983.9 |
| 20260507085822 | 52 | 251 | 1.7 | 3.5 | 0.00 | 0.00 | 0.00 | 88 | 983.9 |
| 20260507085316 | 52 | 254 | 1.7 | 3.5 | 0.00 | 0.00 | 0.00 | 88 | 983.9 |
| 20260507084810 | 52 | 228 | 0.9 | 2.6 | 0.00 | 0.00 | 0.00 | 88 | 983.9 |
| 20260507084304 | 52 | 232 | 0.0 | 3.5 | 0.00 | 0.00 | 0.00 | 88 | 983.9 |
| 20260507083758 | 52 | 196 | 0.0 | 3.5 | 0.00 | 0.00 | 0.00 | 88 | 983.9 |
| 20260507083252 | 52 | 209 | 0.0 | 0.0 | 0.00 | 0.00 | 0.00 | 88 | 983.9 |
| 20260507082745 | 52 | 216 | 0.0 | 0.0 | 0.00 | 0.00 | 0.00 | 88 | 983.9 |
| 20260507082240 | 52 | 208 | 0.0 | 0.9 | 0.00 | 0.00 | 0.00 | 87 | 983.9 |
| 20260507081734 | 52 | 216 | 0.0 | 0.9 | 0.00 | 0.00 | 0.00 | 88 | 983.9 |
| 20260507081227 | 52 | 178 | 0.0 | 1.7 | 0.00 | 0.00 | 0.00 | 88 | 983.9 |
| 20260507080721 | 52 | 194 | 0.0 | 1.7 | 0.00 | 0.00 | 0.00 | 88 | 983.8 |
| 20260507080216 | 52 | 251 | 0.9 | 2.6 | 0.00 | 0.00 | 0.00 | 88 | 983.8 |
| 20260507075709 | 52 | 202 | 0.9 | 2.6 | 0.00 | 0.00 | 0.00 | 87 | 983.8 |
| 20260507075203 | 52 | 128 | 0.0 | 0.9 | 0.00 | 0.00 | 0.00 | 87 | 983.9 |
| 20260507074658 | 52 | 114 | 0.0 | 0.0 | 0.00 | 0.00 | 0.00 | 87 | 983.8 |
| 20260507074152 | 52 | 183 | 0.0 | 0.0 | 0.00 | 0.00 | 0.00 | 87 | 983.8 |
| 20260507073140 | 52 | 306 | 0.9 | 4.3 | 0.00 | 0.00 | 0.00 | 87 | 983.8 |
| 20260507072634 | 52 | 342 | 0.9 | 3.5 | 0.00 | 0.00 | 0.00 | 86 | 983.7 |
| 20260507072127 | 52 | 326 | 0.9 | 3.5 | 0.00 | 0.00 | 0.00 | 86 | 983.7 |
| 20260507071621 | 52 | 295 | 1.7 | 7.8 | 0.00 | 0.00 | 0.00 | 86 | 983.6 |
| 20260507071116 | 52 | 321 | 3.5 | 8.7 | 0.00 | 0.00 | 0.00 | 85 | 983.6 |
| 20260507070609 | 53 | 263 | 3.5 | 8.7 | 0.00 | 0.00 | 0.00 | 85 | 983.6 |
| 20260507070104 | 53 | 259 | 3.5 | 8.7 | 0.00 | 0.00 | 0.00 | 85 | 983.6 |
| 20260507065559 | 53 | 294 | 2.6 | 7.8 | 0.00 | 0.00 | 0.00 | 85 | 983.6 |
| 20260507065053 | 53 | 263 | 2.6 | 7.8 | 0.00 | 0.00 | 0.00 | 85 | 983.6 |
| 20260507064547 | 53 | 273 | 2.6 | 7.8 | 0.00 | 0.00 | 0.00 | 85 | 983.6 |
| 20260507064041 | 53 | 300 | 2.6 | 7.8 | 0.00 | 0.00 | 0.00 | 85 | 983.6 |
| 20260507063535 | 53 | 249 | 2.6 | 7.0 | 0.00 | 0.00 | 0.00 | 85 | 983.6 |
| 20260507063029 | 54 | 271 | 1.7 | 6.1 | 0.00 | 0.00 | 0.00 | 85 | 983.5 |
| 20260507062523 | 54 | 274 | 0.9 | 3.5 | 0.00 | 0.00 | 0.00 | 85 | 983.5 |
| 20260507062017 | 54 | 328 | 0.9 | 7.8 | 0.00 | 0.00 | 0.00 | 85 | 983.5 |
| 20260507061511 | 54 | 277 | 1.7 | 7.8 | 0.00 | 0.00 | 0.00 | 85 | 983.5 |
| 20260507061005 | 55 | 209 | 1.7 | 9.6 | 0.00 | 0.00 | 0.00 | 85 | 983.5 |
| 20260507060459 | 55 | 335 | 2.6 | 9.6 | 0.00 | 0.00 | 0.00 | 85 | 983.5 |
| 20260507055952 | 55 | 240 | 2.6 | 7.8 | 0.00 | 0.00 | 0.00 | 85 | 983.5 |
| 20260507055447 | 55 | 300 | 1.7 | 7.8 | 0.00 | 0.00 | 0.00 | 85 | 983.5 |
| 20260507054941 | 56 | 267 | 0.9 | 6.1 | 0.00 | 0.00 | 0.00 | 85 | 983.5 |
| 20260507054435 | 56 | 294 | 0.0 | 3.5 | 0.00 | 0.00 | 0.00 | 85 | 983.5 |
| 20260507053423 | 56 | 246 | 0.0 | 1.7 | 0.00 | 0.00 | 0.00 | 86 | 983.5 |
| 20260507052918 | 56 | 297 | 0.0 | 2.6 | 0.00 | 0.00 | 0.00 | 85 | 983.4 |
| 20260507052411 | 56 | 290 | 0.0 | 2.6 | 0.00 | 0.00 | 0.00 | 85 | 983.4 |
| 20260507051359 | 56 | 355 | 1.7 | 3.5 | 0.00 | 0.00 | 0.00 | 85 | 983.3 |
| 20260507050853 | 56 | 349 | 1.7 | 3.5 | 0.00 | 0.00 | 0.00 | 84 | 983.3 |
| 20260507050347 | 56 | 322 | 1.7 | 2.6 | 0.00 | 0.00 | 0.00 | 84 | 983.4 |
| 20260507045841 | 56 | 336 | 1.7 | 2.6 | 0.00 | 0.00 | 0.00 | 84 | 983.4 |
| 20260507045336 | 57 | 0 | 0.9 | 2.6 | 0.00 | 0.00 | 0.00 | 84 | 983.4 |
| 20260507044828 | 57 | 333 | 0.9 | 2.6 | 0.00 | 0.00 | 0.00 | 84 | 983.4 |
| 20260507044323 | 57 | 325 | 0.9 | 5.2 | 0.00 | 0.00 | 0.00 | 83 | 983.4 |
| 20260507043817 | 57 | 289 | 0.9 | 5.2 | 0.00 | 0.00 | 0.00 | 83 | 983.4 |
| 20260507043310 | 57 | 317 | 1.7 | 6.1 | 0.00 | 0.00 | 0.00 | 83 | 983.3 |
| 20260507042804 | 57 | 282 | 2.6 | 7.8 | 0.00 | 0.00 | 0.00 | 83 | 983.3 |
| 20260507042259 | 58 | 267 | 3.5 | 7.8 | 0.00 | 0.00 | 0.00 | 83 | 983.3 |
| 20260507041259 | 58 | 304 | 2.6 | 7.8 | 0.00 | 0.00 | 0.00 | 82 | 983.3 |
| 20260507040259 | 58 | 279 | 3.5 | 7.8 | 0.00 | 0.00 | 0.00 | 82 | 983.1 |
| 20260507035759 | 59 | 254 | 3.5 | 7.8 | 0.00 | 0.00 | 0.00 | 81 | 983.0 |
| 20260507035257 | 59 | 277 | 2.6 | 7.8 | 0.00 | 0.00 | 0.00 | 81 | 983.0 |
| 20260507034757 | 59 | 257 | 2.6 | 7.0 | 0.00 | 0.00 | 0.00 | 81 | 982.9 |
| 20260507033757 | 60 | 304 | 1.7 | 5.2 | 0.00 | 0.00 | 0.00 | 80 | 982.7 |
| 20260507033255 | 60 | 267 | 2.6 | 7.0 | 0.00 | 0.00 | 0.00 | 79 | 982.7 |
| 20260507032756 | 61 | 284 | 3.5 | 9.6 | 0.00 | 0.00 | 0.00 | 79 | 982.5 |
| 20260507032256 | 61 | 247 | 3.5 | 9.6 | 0.00 | 0.00 | 0.00 | 78 | 982.6 |
| 20260507031756 | 61 | 277 | 3.5 | 8.7 | 0.00 | 0.00 | 0.00 | 78 | 982.5 |
| 20260507031257 | 62 | 266 | 4.3 | 10.4 | 0.00 | 0.00 | 0.00 | 77 | 982.4 |
| 20260507030757 | 62 | 240 | 4.3 | 10.4 | 0.00 | 0.00 | 0.00 | 77 | 982.4 |
| 20260507030258 | 63 | 255 | 3.5 | 7.8 | 0.00 | 0.00 | 0.00 | 77 | 982.4 |
| 20260507025755 | 63 | 243 | 3.5 | 7.0 | 0.00 | 0.00 | 0.00 | 76 | 982.4 |
| 20260507025255 | 64 | 279 | 2.6 | 7.8 | 0.00 | 0.00 | 0.00 | 76 | 982.3 |
| 20260507024755 | 64 | 242 | 2.6 | 7.8 | 0.00 | 0.00 | 0.00 | 75 | 982.3 |
| 20260507024256 | 64 | 248 | 2.6 | 5.2 | 0.00 | 0.00 | 0.00 | 74 | 982.2 |
| 20260507023757 | 65 | 255 | 2.6 | 6.1 | 0.00 | 0.00 | 0.00 | 72 | 982.3 |
| 20260507023254 | 65 | 247 | 2.6 | 7.0 | 0.00 | 0.00 | 0.00 | 73 | 982.3 |
| 20260507022754 | 65 | 300 | 2.6 | 7.0 | 0.00 | 0.00 | 0.00 | 71 | 982.2 |
| 20260507022254 | 66 | 267 | 1.7 | 6.1 | 0.00 | 0.00 | 0.00 | 72 | 982.2 |
| 20260507021755 | 66 | 232 | 2.6 | 7.0 | 0.00 | 0.00 | 0.00 | 70 | 982.2 |
| 20260507020755 | 66 | 269 | 2.6 | 7.0 | 0.00 | 0.00 | 0.00 | 71 | 982.3 |
| 20260507020254 | 67 | 260 | 3.5 | 8.7 | 0.00 | 0.00 | 0.00 | 71 | 982.3 |
| 20260507015753 | 67 | 218 | 4.3 | 8.7 | 0.00 | 0.00 | 0.00 | 68 | 982.3 |
| 20260507015255 | 67 | 284 | 3.5 | 7.8 | 0.00 | 0.00 | 0.00 | 68 | 982.3 |
| 20260507013753 | 68 | 272 | 2.6 | 7.8 | 0.00 | 0.00 | 0.00 | 68 | 982.4 |
| 20260507013254 | 68 | 284 | 3.5 | 8.7 | 0.00 | 0.00 | 0.00 | 69 | 982.3 |
| 20260507012755 | 68 | 261 | 4.3 | 9.6 | 0.00 | 0.00 | 0.00 | 68 | 982.4 |
| 20260507012255 | 68 | 223 | 4.3 | 9.6 | 0.00 | 0.00 | 0.00 | 67 | 982.4 |
| 20260507011753 | 68 | 263 | 4.3 | 11.3 | 0.00 | 0.00 | 0.00 | 67 | 982.4 |
| 20260507010754 | 69 | 286 | 3.5 | 9.6 | 0.00 | 0.00 | 0.00 | 66 | 982.4 |
| 20260507005751 | 69 | 274 | 5.2 | 10.4 | 0.00 | 0.00 | 0.00 | 67 | 982.5 |
| 20260507005249 | 69 | 297 | 5.2 | 10.4 | 0.00 | 0.00 | 0.00 | 65 | 982.5 |
| 20260507004749 | 69 | 323 | 4.3 | 10.4 | 0.00 | 0.00 | 0.00 | 66 | 982.5 |
| 20260507004249 | 69 | 228 | 4.3 | 11.3 | 0.00 | 0.00 | 0.00 | 70 | 982.4 |
| 20260507003751 | 69 | 273 | 4.3 | 11.3 | 0.00 | 0.00 | 0.00 | 67 | 982.4 |
| 20260507003250 | 69 | 252 | 4.3 | 12.2 | 0.00 | 0.00 | 0.00 | 70 | 982.4 |
| 20260507002743 | 68 | 311 | 5.2 | 12.2 | 0.00 | 0.00 | 0.00 | 69 | 982.4 |
| 20260507002237 | 68 | 221 | 5.2 | 11.3 | 0.00 | 0.00 | 0.00 | 68 | 982.4 |
| 20260507001732 | 68 | 255 | 5.2 | 11.3 | 0.00 | 0.00 | 0.00 | 68 | 982.4 |
| 20260507001226 | 69 | 219 | 5.2 | 11.3 | 0.00 | 0.00 | 0.00 | 67 | 982.4 |
| 20260507000720 | 69 | 242 | 4.3 | 10.4 | 0.00 | 0.00 | 0.00 | 67 | 982.3 |
| 20260507000214 | 69 | 202 | 5.2 | 10.4 | 0.00 | 0.00 | 0.00 | 67 | 982.3 |